Location: Arrodets-la-Barthe
(43.0306°N, 0.2829°E)
Time: 07:02:23
(UTC+00:00)

Cosmos 2278 - Pass Details

Date: 31 May 2022
Orbit: 838 x 854 km, 71.1° (Epoch: 03 July)

Event Time Altitude Azimuth Distance (km) Brightness Sun altitude
Rises 20:19:43 0° 205° (SSW) 3,381 6.7 -8.1°
Reaches altitude 10° 20:22:09 10° 207° (SSW) 2,452 6.0 -8.4°
Maximum altitude 20:27:47 82° 295° (WNW) 858 3.9 -9.2°
Drops below altitude 10° 20:33:30 10° 23° (NNE) 2,478 6.4 -9.9°
Sets 20:35:58 0° 24° (NNE) 3,420 7.1 -10.3°
